Preview of NWS' New Version of Forecast
This preview is not operational and should not be used for support decisions.

Regional Weather Roundup (RWR)

Issued by National Weather Service (NWS)

                            
000
ASUS43 KTOP 191159
RWRKS 

WEATHER ROUNDUP FOR KANSAS
NATIONAL WEATHER SERVICE GOODLAND KS
700 AM CDT MON AUG 19 2019

NOTE:  "FAIR" INDICATES FEW OR NO CLOUDS BELOW 12,000 FEET WITH NO
SIGNIFICANT WEATHER AND/OR OBSTRUCTIONS TO VISIBILITY.

KSZ001>006-013>018-027>032-041>047-191300-
NORTHWEST KANSAS
  
CITY           SKY/WX    TMP DP  RH WIND       PRES   REMARKS
GOODLAND       CLEAR     63  63 100 S5        30.00S                  
6HR MIN TEMP:  62; 6HR MAX TEMP:  67;                                

HAYS           MOCLDY    71  70  96 E10       29.86R                  
HILL CITY      FOG       69  69 100 E9        29.98R VSB 1/4          
6HR MIN TEMP:  68; 6HR MAX TEMP:  71;                                

RUSSELL        FOG       70  68  93 NE9       29.95S VSB 1/2          
6HR MIN TEMP:  69; 6HR MAX TEMP:  73;                                

$$

KSZ061>065-074>080-084>089-191300-
SOUTHWEST KANSAS
  
CITY           SKY/WX    TMP DP  RH WIND       PRES   REMARKS
DODGE CITY     CLEAR     69  68  96 S6        29.97R FOG              
6HR MIN TEMP:  66; 6HR MAX TEMP:  74;                                

GARDEN CITY    CLEAR     65  64  97 E5        29.97R FOG              
6HR MIN TEMP:  64; 6HR MAX TEMP:  73;                                

GREAT BEND     LGT RAIN  73  73 100 SE8       29.96R VSB 1/4          
LIBERAL        CLEAR     68  63  84 SW5       29.98R                  
$$

KSZ066>073-081>083-090>101-191300-
SOUTHEAST KANSAS
  
CITY           SKY/WX    TMP DP  RH WIND       PRES   REMARKS
CHANUTE        CLEAR     75  72  90 SE6       29.97R                  
6HR MIN TEMP:  75; 6HR MAX TEMP:  79;                                

COFFEYVILLE    PTCLDY    74  71  91 SE6       29.95R                  
6HR MIN TEMP:  74; 6HR MAX TEMP:  78;                                

HUTCHINSON     CLEAR     75  73  93 E7        29.94R                  
6HR MIN TEMP:  75; 6HR MAX TEMP:  77;                                

MEDICINE LODGE   N/A     74  72  93 SE6       29.93R                  
NEWTON         CLEAR     73  72  96 MISG      29.97R                  
PARSONS        PTCLDY    75  73  93 S3        29.98R                  
6HR MIN TEMP:  75; 6HR MAX TEMP:  78;                                

WICHITA INTL   PTCLDY    77  72  84 SE9       29.95R                  
6HR MIN TEMP:  76; 6HR MAX TEMP:  81;                                

WICHITA JABRA  CLEAR     74  72  93 SE5       29.95R                  
6HR MIN TEMP:  74; 6HR MAX TEMP:  79;                                

WICHITA MCCONL CLEAR     75  70  84 E9        29.95R                  
WINFIELD       CLEAR     76  71  85 SE7       29.95R                  
6HR MIN TEMP:  76; 6HR MAX TEMP:  80;                                

$$

KSZ007>012-019>026-033>040-048>060-102>105-191300-
NORTHEAST KANSAS
  
CITY           SKY/WX    TMP DP  RH WIND       PRES   REMARKS
CONCORDIA      PTCLDY    68  66  93 E6        29.99R                  
6HR MIN TEMP:  68; 6HR MAX TEMP:  71;                                

EMPORIA        CLEAR     73  73 100 SE7       29.97R                  
6HR MIN TEMP:  73; 6HR MAX TEMP:  75;                                

LAWRENCE       PTCLDY    73  69  87 CALM      29.98R                  
6HR MIN TEMP:  72; 6HR MAX TEMP:  77;                                

MANHATTAN      PTCLDY    71  68  90 NE7       29.97R                  
6HR MIN TEMP:  71; 6HR MAX TEMP:  75;                                

OLATHE IND     PTCLDY    73  71  93 NE5       29.99R                  
6HR MIN TEMP:  72; 6HR MAX TEMP:  76;                                

OLATHE EXE     CLEAR     73  71  93 NE3       29.99R                  
6HR MIN TEMP:  72; 6HR MAX TEMP:  74;                                

SALINA         CLEAR     73  70  90 NE6       29.95R                  
6HR MIN TEMP:  73; 6HR MAX TEMP:  77;                                

TOPEKA BILLARD MOCLDY    72  68  87 NE3       29.98R                  
6HR MIN TEMP:  71; 6HR MAX TEMP:  75;                                

TOPEKA FORBES  MOCLDY    73  69  87 CALM      29.98R                  
6HR MIN TEMP:  72; 6HR MAX TEMP:  76;                                

$$